Theta_e
308 308 308 308 308 309 309 309 310 310 310 310 310 310 310 311 310 310 311 310 310 310 310 310 311 311 311 311 310 309 309 309 310 311 314 317 317 316 314 311 312 312 312 312 312 313 313 313 315 315 315 317 319 320 319 318 318 320 324 324 321 322 323 322 322 320 321 319 317 317 318 318 317 316 316 316 316 316 317 317 316 316 316 315 316 316 315 316
308 308 308 308 308 309 309 309 310 310 310 310 310 310 310 311 310 311 310 310 311 310 311 310 311 311 311 310 310 309 309 309 310 312 316 318 315 313 312 312 312 312 312 312 312 313 315 315 315 315 316 317 318 320 321 319 318 321 323 322 322 323 321 320 320 319 320 319 317 317 317 317 318 316 316 316 316 316 316 316 317 316 316 315 315 315 315 315
308 308 308 308 308 309 309 309 310 310 310 310 310 310 310 311 310 311 310 311 310 310 311 310 311 311 311 310 310 310 309 309 310 312 317 316 313 312 312 312 312 312 313 312 313 315 315 316 315 315 316 316 316 318 320 320 318 320 323 323 322 321 319 319 319 318 319 319 318 317 317 317 317 317 316 316 316 316 316 316 316 317 317 316 315 315 315 315
308 308 308 308 308 309 309 309 310 310 310 310 310 310 310 311 311 311 311 311 311 311 310 311 311 311 311 310 309 310 309 310 311 312 315 314 312 312 312 313 313 313 313 312 313 314 315 316 315 314 316 316 316 317 319 319 319 319 320 321 320 318 319 318 318 317 317 319 318 318 317 317 317 317 317 316 316 316 316 317 316 317 317 317 317 316 316 315
308 308 308 308 309 309 309 309 310 310 310 310 310 311 311 311 311 311 311 311 311 311 310 311 311 311 311 310 309 310 310 313 314 314 313 313 312 312 312 312 313 313 313 313 313 314 315 315 315 315 316 316 316 317 318 318 318 318 318 318 317 317 318 317 316 317 317 318 318 317 317 317 317 317 317 317 317 317 318 318 317 317 318 317 317 317 316 316
308 308 308 308 309 309 309 309 309 310 310 310 311 311 311 311 311 311 311 311 310 310 311 311 311 311 310 310 309 309 312 315 316 315 313 312 312 312 313 312 313 313 313 312 313 314 314 315 315 315 316 317 317 315 317 317 316 318 318 317 316 317 318 317 316 316 317 318 318 317 317 317 317 317 317 317 317 317 318 318 318 318 318 318 317 317 317 316
308 308 308 308 309 309 309 309 310 310 310 310 310 310 311 311 311 311 311 310 310 310 311 311 311 311 310 310 309 309 311 314 314 314 313 312 312 312 313 313 312 313 313 313 315 315 315 316 316 316 316 317 317 316 317 317 316 317 317 317 316 317 316 316 316 315 316 317 317 317 317 317 317 317 317 317 317 317 318 318 318 317 317 317 317 317 317 316
308 308 308 308 308 309 309 309 310 310 310 310 310 311 311 311 311 311 310 310 310 310 310 311 311 310 310 309 310 310 310 312 314 313 312 313 313 313 312 313 313 312 313 314 315 316 315 316 316 316 317 316 317 317 316 316 315 316 317 317 316 317 316 315 315 315 315 316 316 316 317 317 317 317 317 317 318 317 317 317 317 317 317 316 316 316 316 316
308 308 308 308 308 308 309 309 310 310 310 310 310 311 311 311 311 310 310 310 310 310 311 311 310 310 310 309 310 312 313 314 315 313 312 313 313 312 312 313 313 312 313 314 315 316 316 316 316 317 317 317 317 316 316 316 316 317 317 317 317 316 315 315 315 315 316 316 316 316 317 317 317 317 316 317 317 317 317 317 317 317 316 316 316 316 316 316
308 308 308 308 308 308 309 309 310 310 310 310 311 311 311 311 310 310 310 310 310 310 311 310 310 309 309 309 311 313 316 316 314 313 313 313 313 312 312 312 312 312 315 315 314 315 316 317 317 317 317 317 317 316 317 317 317 317 317 317 317 317 315 316 316 315 316 316 316 316 317 317 316 317 317 318 318 317 317 317 317 317 317 316 316 316 315 316
308 308 308 308 308 308 309 309 310 310 310 310 310 310 311 311 310 310 309 310 310 310 310 310 309 309 309 310 311 313 316 315 313 313 313 313 313 312 312 312 313 313 315 316 313 315 316 317 317 316 317 317 317 317 317 317 318 318 318 317 317 317 316 316 317 316 316 317 316 316 317 317 317 317 317 318 318 318 317 317 317 317 317 317 316 316 316 316
308 308 308 308 308 308 309 309 309 309 309 310 310 311 310 310 309 309 309 309 310 310 310 309 309 309 308 309 311 314 316 315 312 313 313 313 313 312 312 312 314 314 316 316 313 314 315 316 316 316 317 317 316 317 317 317 318 318 318 318 317 317 317 316 317 317 316 317 317 316 318 318 318 318 318 317 318 318 318 318 318 317 317 317 317 317 317 317
308 308 308 308 308 309 309 309 309 309 309 310 310 310 309 308 308 308 308 308 309 309 308 308 309 309 309 310 312 313 315 314 312 312 312 313 312 312 312 313 314 314 315 316 314 313 314 315 316 317 317 317 317 316 317 317 317 318 318 318 319 317 317 318 318 318 317 317 317 316 319 320 318 318 318 317 318 318 318 318 318 318 318 318 318 317 317 317
308 308 308 308 309 309 309 309 309 309 309 309 309 308 307 306 306 306 307 307 308 308 308 308 308 308 309 312 314 313 313 313 312 312 312 312 312 312 312 313 315 315 315 315 314 314 314 315 316 316 317 318 317 316 317 317 317 318 318 318 320 319 318 319 318 318 317 317 317 317 318 320 318 318 319 318 318 318 318 318 318 318 318 318 318 318 318 318
308 308 308 308 309 309 309 308 309 309 309 308 308 307 306 306 306 306 306 306 307 307 308 308 308 310 310 312 314 313 313 313 313 312 312 312 312 312 313 313 315 315 315 315 315 315 315 315 316 316 317 316 316 318 318 317 317 318 318 319 320 319 319 319 318 318 317 316 316 317 318 319 318 318 319 319 319 318 318 318 318 318 318 319 319 319 319 318
308 308 308 308 308 308 308 308 308 308 308 307 306 306 306 306 306 306 306 306 307 307 307 308 308 310 312 313 313 313 314 314 313 312 312 312 312 313 313 314 315 316 316 316 315 315 315 316 317 317 317 316 317 319 320 318 318 319 319 319 320 320 319 319 318 317 317 317 316 317 318 319 318 318 318 319 319 318 318 318 318 318 319 319 319 319 319 319
308 308 308 308 308 308 307 308 308 308 307 307 306 306 306 306 306 306 306 306 307 307 308 310 310 309 311 314 314 313 314 314 313 313 312 311 312 313 313 314 316 315 316 316 316 316 316 316 317 317 316 317 318 319 320 319 319 320 319 319 320 320 319 318 318 317 317 317 317 318 318 318 318 317 318 318 318 318 318 318 318 318 319 319 319 319 319 319
307 307 308 307 307 307 307 307 307 307 307 307 307 307 307 307 307 307 307 307 307 307 308 311 311 311 311 312 314 313 313 313 313 313 312 311 312 312 314 316 315 315 316 316 317 317 317 316 316 318 318 317 318 318 320 321 319 320 320 318 319 320 318 317 318 317 317 317 317 318 317 317 318 317 317 318 318 318 318 318 318 318 319 318 319 319 319 319
307 307 307 307 307 307 307 307 307 307 308 308 308 307 307 307 307 308 308 307 308 309 310 311 311 312 312 311 313 314 313 312 312 313 312 311 312 313 314 316 316 316 316 317 317 316 317 318 318 321 321 317 317 318 320 320 317 317 319 319 318 318 318 317 318 316 316 317 317 318 317 317 317 318 317 318 319 318 318 318 318 318 319 318 319 318 318 318
307 307 306 307 307 307 307 307 308 308 309 308 307 306 307 308 308 309 309 308 309 311 312 311 310 312 314 313 313 314 313 312 312 312 313 312 312 313 314 316 317 316 317 318 319 317 318 320 321 322 321 318 317 317 318 318 316 316 318 319 319 318 318 317 317 316 315 317 317 317 317 316 317 318 317 317 318 318 317 318 318 318 319 319 319 319 318 318
308 307 307 307 307 308 308 308 309 309 308 307 307 307 310 310 310 310 310 309 309 311 313 312 312 313 315 313 313 314 313 313 313 313 312 312 312 314 316 316 316 316 318 319 318 317 317 321 323 321 319 318 317 318 318 317 316 316 318 319 319 320 319 317 317 316 314 317 318 317 317 316 316 317 317 317 317 317 317 317 317 317 318 318 318 319 318 318
311 310 309 308 308 308 308 309 309 308 308 306 306 309 311 311 312 312 311 310 309 309 311 312 312 313 313 313 313 314 314 314 315 314 312 312 314 315 316 316 315 316 318 318 318 318 318 320 320 318 317 318 318 317 317 317 317 317 318 319 320 322 320 317 317 316 315 317 318 317 316 316 315 316 316 316 316 317 317 317 317 317 317 318 318 318 319 318
315 315 313 311 309 308 308 308 308 308 307 306 306 309 310 309 311 311 310 312 312 310 310 310 311 312 312 312 312 314 315 315 315 315 312 312 314 315 315 315 315 317 318 318 319 320 319 318 317 317 317 317 317 316 316 317 318 320 320 319 321 322 320 317 316 316 316 316 317 317 318 317 316 318 317 316 316 316 316 317 316 317 317 318 318 318 319 319
316 316 317 316 313 311 309 308 308 308 307 306 306 308 308 308 309 309 310 312 313 312 310 309 311 312 312 313 312 314 315 315 316 316 312 313 315 315 315 314 315 317 318 317 317 318 318 317 316 316 317 317 317 317 318 317 317 321 323 320 320 321 320 319 318 318 317 317 319 320 321 321 321 321 321 320 318 317 317 317 317 318 318 318 318 318 318 319
317 316 318 318 317 316 312 310 308 307 307 307 306 307 307 307 308 309 310 312 313 313 310 310 311 311 312 313 312 314 315 315 317 316 312 314 315 315 316 315 315 316 317 317 317 317 317 316 316 318 317 317 318 318 320 320 317 319 323 324 321 319 321 322 321 321 318 318 320 321 322 325 322 320 321 319 319 319 319 319 319 319 318 318 318 318 318 318
320 319 320 319 318 318 316 315 312 308 307 306 306 307 306 307 308 309 310 312 313 312 310 311 311 310 312 313 313 313 313 314 317 316 312 314 316 315 315 315 315 315 316 317 316 317 317 315 318 321 320 321 321 319 321 322 317 316 322 326 323 321 323 322 321 320 318 318 320 320 320 321 317 315 316 316 316 317 318 319 319 319 319 319 319 319 319 319
320 320 321 321 320 318 318 319 317 312 311 309 307 306 306 307 309 309 311 312 313 312 311 311 311 311 312 312 313 312 313 315 316 316 314 314 316 315 314 315 315 315 315 317 318 318 318 318 320 322 322 324 322 319 322 321 318 319 323 325 322 322 323 322 321 321 320 321 323 322 320 320 318 316 317 316 316 316 317 318 318 317 319 319 319 320 320 321
320 319 320 321 322 320 318 319 318 316 315 312 308 306 307 308 309 309 311 312 315 314 312 311 310 312 313 311 312 313 313 315 315 316 314 313 316 315 313 314 314 315 316 318 319 318 319 321 323 323 322 322 321 322 325 321 320 323 324 323 323 324 323 322 321 321 322 322 323 324 321 321 321 319 320 320 319 318 318 320 320 317 318 318 319 321 321 321
320 320 320 321 322 321 319 319 319 316 316 313 309 306 308 309 310 311 312 312 315 314 311 311 311 313 313 312 313 313 313 314 315 316 314 313 315 314 313 314 314 315 315 316 319 320 319 317 319 321 321 321 320 323 326 324 322 321 322 323 324 324 323 322 321 321 322 320 321 327 324 318 317 317 319 322 320 319 320 321 321 318 318 320 320 320 320 318
319 320 320 320 321 321 319 320 319 318 316 313 309 307 308 310 309 311 311 312 315 314 310 310 312 313 313 312 312 312 312 314 315 315 314 314 315 314 314 314 314 317 318 317 319 318 316 313 315 319 319 318 318 318 320 323 321 319 322 324 322 322 322 322 322 321 321 319 320 327 325 317 315 316 320 321 320 321 320 319 321 321 321 321 319 318 317 317
318 319 320 320 320 320 320 320 319 319 317 313 309 308 309 312 312 310 310 312 316 315 310 310 312 313 312 312 312 312 313 315 315 314 314 315 315 314 315 315 315 320 321 320 320 318 317 317 316 316 316 316 317 318 318 319 319 320 323 322 321 322 322 321 322 322 321 319 320 325 324 318 315 317 321 321 320 321 320 318 322 324 323 320 319 318 318 318
315 317 319 319 319 319 320 320 320 320 319 313 308 309 311 313 313 312 312 312 314 315 312 312 313 312 312 313 313 312 313 315 315 314 315 315 315 314 315 316 316 319 320 319 320 320 321 321 318 316 315 315 318 321 319 318 320 323 322 320 320 321 322 323 324 325 324 319 320 323 322 319 316 315 319 318 317 319 319 319 321 322 321 320 320 319 319 319
312 314 316 318 319 319 319 320 320 320 320 313 307 312 316 313 311 312 312 311 314 316 315 314 313 312 312 313 314 313 314 316 315 315 316 316 316 315 315 316 316 317 318 318 319 321 321 321 320 318 316 315 318 320 319 318 320 322 321 321 322 319 320 322 322 325 325 321 320 320 320 321 318 316 318 317 317 318 317 317 318 318 319 318 318 319 319 319
311 311 313 315 318 319 318 319 320 320 320 313 309 315 317 313 311 312 313 314 315 316 316 315 314 313 313 314 315 314 314 316 315 315 317 317 317 316 316 316 316 316 316 316 319 321 320 321 321 318 316 317 317 318 318 318 319 319 319 320 321 319 318 319 319 322 325 323 319 317 320 324 321 319 319 317 316 317 317 318 318 318 318 318 317 317 317 317
310 310 311 314 316 317 318 319 319 320 319 314 313 315 314 312 313 312 312 316 316 316 316 316 315 314 314 317 318 314 314 318 317 316 319 317 316 317 316 315 315 316 316 315 318 319 317 320 321 318 316 316 317 318 317 318 318 318 318 319 321 320 316 316 319 320 321 320 320 320 323 324 320 317 316 315 315 315 315 316 318 318 318 317 317 316 315 316
308 310 311 313 314 315 316 318 318 319 319 315 314 314 312 312 315 314 315 317 317 316 316 316 316 315 314 317 319 315 315 319 318 317 319 318 317 317 317 316 315 315 316 315 317 319 318 321 322 318 315 314 316 318 318 318 319 319 319 320 321 321 316 317 320 319 317 317 318 320 321 318 315 314 315 315 316 315 314 314 315 317 318 317 316 316 315 316
307 308 311 313 314 313 314 317 317 317 318 314 312 312 313 315 316 317 318 318 316 316 316 316 317 315 315 317 318 317 316 319 319 318 318 318 318 317 317 317 316 315 316 315 316 319 320 321 321 318 318 316 314 316 317 316 318 322 322 319 319 321 319 317 318 319 319 317 316 316 315 315 313 314 318 318 316 317 317 316 315 314 316 317 316 316 316 316
307 307 309 311 313 313 313 316 317 316 316 314 313 312 313 315 315 316 317 316 316 316 316 316 317 316 316 316 316 316 316 317 318 317 317 317 317 317 316 317 317 316 316 315 316 319 319 318 318 317 318 317 314 315 318 315 315 320 321 318 318 321 322 319 316 317 318 317 317 317 316 315 314 313 315 316 316 318 319 319 318 315 315 317 316 317 317 317
305 307 307 309 310 311 313 315 316 315 314 314 314 313 312 312 313 314 315 316 317 318 317 316 316 317 317 316 316 316 315 315 317 317 316 316 317 317 316 316 319 317 315 315 315 317 318 318 319 316 315 317 315 316 320 319 317 316 317 318 320 321 321 321 318 316 317 316 316 317 316 316 315 314 315 316 317 318 317 319 321 318 316 317 316 318 319 319
303 307 307 307 307 309 312 314 314 314 313 312 313 313 313 312 312 312 314 315 316 317 318 319 318 317 318 317 317 317 315 315 317 316 316 316 316 317 316 316 319 319 316 316 316 317 317 317 319 316 314 317 318 317 317 319 318 317 317 319 321 319 319 321 320 318 318 317 316 316 316 315 314 314 316 317 317 318 318 321 322 319 317 317 318 318 319 320
303 306 307 308 306 307 311 313 313 313 313 311 310 311 312 313 313 313 313 314 314 315 315 317 318 318 320 319 318 318 316 316 318 317 316 316 316 318 318 316 318 319 318 317 317 317 317 316 318 318 316 317 318 316 316 317 317 316 315 317 318 318 319 320 319 318 318 319 318 318 318 317 315 316 317 316 317 318 319 320 320 318 316 317 317 317 319 320
304 304 306 308 307 306 310 312 312 313 313 311 310 311 312 313 314 314 314 313 314 314 314 315 317 318 320 320 319 319 318 316 317 318 317 316 317 319 318 316 317 317 317 318 318 316 316 316 318 319 318 317 317 317 317 318 319 318 317 316 316 317 318 318 319 320 321 320 318 319 320 317 315 317 317 316 317 317 316 317 317 316 316 316 316 317 319 318
304 304 305 307 306 305 309 311 312 313 313 312 311 311 312 314 314 315 315 314 314 314 315 316 317 318 319 318 319 320 320 318 319 319 319 318 318 318 317 315 316 317 317 319 319 317 317 318 318 318 318 318 319 318 317 316 318 320 320 320 318 317 317 318 320 321 323 323 320 320 319 316 316 321 318 315 317 316 316 316 315 315 316 316 316 318 318 317
302 303 305 306 307 307 309 310 310 311 311 312 312 312 312 313 314 315 315 314 314 314 315 316 316 316 317 317 318 320 319 319 320 320 320 319 319 317 315 315 316 317 317 319 319 317 317 319 319 317 318 319 319 320 319 317 317 318 320 321 320 320 320 320 319 319 320 322 322 320 318 315 319 325 321 317 318 317 315 316 316 316 316 315 317 319 319 318
301 302 303 305 307 309 309 309 308 310 310 311 312 313 313 313 313 314 314 314 313 314 315 316 315 315 316 317 317 318 317 318 319 319 318 318 318 316 315 315 315 315 315 316 315 316 319 321 318 317 318 318 319 321 321 319 318 318 318 320 320 321 323 322 321 320 318 319 320 319 317 315 316 320 319 319 320 317 316 316 316 316 316 316 317 318 318 317
302 301 302 304 307 309 309 309 309 310 310 310 311 312 312 313 313 313 314 314 313 313 314 315 315 315 316 316 315 315 315 316 318 318 318 318 318 316 314 314 314 314 314 314 313 317 322 322 318 316 317 317 318 321 321 319 318 317 318 319 319 320 322 322 321 321 319 317 318 317 317 317 315 315 316 316 318 318 316 316 315 316 316 316 316 317 317 317
302 302 302 303 306 308 309 309 309 309 310 310 310 310 311 313 313 313 313 314 313 313 313 314 314 315 315 315 314 313 314 315 316 316 316 316 317 317 314 312 313 313 313 312 312 318 322 318 317 318 317 316 318 319 319 318 318 317 317 317 318 319 321 321 320 319 318 318 318 317 317 318 316 315 315 315 317 318 316 314 315 316 316 316 317 317 317 317
302 303 302 303 304 305 306 308 308 308 309 309 309 309 311 311 312 313 313 313 313 313 314 314 315 315 315 314 314 314 314 315 316 316 316 315 316 317 315 313 312 312 313 313 313 318 321 317 316 318 316 316 317 317 317 318 317 318 318 318 318 318 319 320 319 318 318 318 317 317 318 318 316 315 315 315 316 316 315 315 316 316 316 316 316 317 317 317
301 302 303 303 304 304 305 306 308 308 308 309 309 309 310 310 311 312 313 313 313 313 314 314 314 314 315 314 314 315 315 316 316 315 315 315 316 316 317 316 313 310 313 315 313 315 319 317 315 316 316 317 317 316 317 317 317 318 318 319 319 318 318 318 318 317 317 317 317 316 317 317 315 315 315 315 315 315 315 315 315 315 316 316 316 316 317 317
301 301 302 303 304 304 305 305 307 308 308 308 309 309 309 309 310 310 312 313 313 313 313 314 314 314 315 315 314 315 315 315 316 315 315 315 315 316 316 317 315 310 311 315 313 312 315 316 315 314 315 315 315 315 316 316 317 318 318 318 319 319 318 317 317 317 317 317 317 317 317 316 315 315 315 315 315 315 315 315 315 315 316 315 316 316 317 317
301 301 302 303 304 304 304 305 306 308 308 307 308 308 308 309 309 309 311 312 313 313 313 313 313 314 314 314 314 314 314 315 315 315 315 315 315 315 315 315 316 314 311 313 314 313 313 315 315 315 315 316 316 315 316 316 317 317 317 317 317 318 318 318 318 318 317 317 317 317 317 317 315 315 315 315 314 314 314 314 315 315 315 315 316 316 316 317
300 301 302 303 303 303 304 305 305 307 308 307 307 307 308 308 309 309 310 311 311 312 312 313 313 313 313 313 313 313 314 314 314 313 313 314 314 314 314 314 315 313 311 312 313 313 313 314 315 315 316 316 316 316 316 316 316 317 317 316 316 316 317 317 318 319 318 318 318 318 317 316 315 315 316 315 315 315 314 314 315 315 315 315 316 316 316 317
Wind_Speed
21 21 21 20 19 19 18 17 16 16 15 14 14 13 12 11 10 10 10 10 10 10 10 10 10 10 9 8 7 6 6 6 6 7 7 6 8 9 8 7 7 7 7 7 6 5 4 4 3 4 4 5 5 4 5 5 5 3 1 2 3 4 2 2 3 3 5 6 6 11 14 8 6 8 7 5 5 5 4 5 6 6 7 9 7 6 5 4
22 22 22 21 20 19 18 18 17 16 16 14 14 13 12 11 10 10 10 10 10 10 10 10 11 10 9 9 7 6 5 5 6 7 8 7 7 9 8 8 7 6 7 7 7 6 3 2 4 5 5 5 5 5 4 4 5 3 1 2 4 1 3 5 8 7 5 5 9 11 12 8 7 11 9 5 7 9 6 6 9 9 9 11 12 11 9 7
21 22 22 22 21 20 19 18 18 16 15 14 13 12 11 11 10 10 10 10 10 10 10 10 11 10 10 9 7 6 4 5 6 8 10 9 8 8 7 7 7 6 7 8 9 7 5 4 5 7 7 7 6 6 5 4 5 3 2 2 2 1 5 11 14 10 7 4 7 10 8 5 8 10 9 5 6 9 9 9 11 13 14 14 14 14 13 12
22 23 22 22 21 20 19 18 17 16 15 14 13 12 12 11 11 11 11 11 11 11 11 11 11 11 10 9 7 5 4 3 6 9 11 10 9 8 7 6 6 6 6 7 8 9 8 4 6 9 7 6 7 6 6 7 5 2 1 1 3 5 4 9 11 8 5 4 5 9 5 3 7 7 8 6 4 5 9 12 13 15 18 18 16 15 15 15
22 23 23 22 22 20 20 18 17 16 15 14 13 13 12 12 11 11 11 11 11 11 11 11 11 11 10 9 7 6 5 1 4 11 11 10 10 9 8 7 6 5 5 7 6 6 8 5 5 8 7 4 8 5 6 9 6 1 1 3 6 7 4 5 6 6 6 3 5 8 3 3 8 5 6 7 4 3 3 7 10 10 13 16 17 16 14 15
23 24 24 23 22 21 20 18 17 16 15 15 14 14 13 12 12 12 12 12 12 12 12 12 11 11 11 10 8 8 8 1 1 9 12 11 11 10 9 7 6 4 4 6 6 5 7 6 7 8 8 4 8 6 4 9 7 2 1 5 7 6 4 3 2 5 5 3 3 3 1 3 6 3 7 11 10 6 2 2 5 4 4 8 12 14 13 13
23 24 23 22 22 21 19 18 17 16 15 15 15 14 13 12 12 12 12 12 12 12 12 12 12 12 12 10 9 9 11 7 5 6 12 13 12 12 10 8 6 4 4 5 5 4 5 7 9 9 8 4 8 7 5 7 7 3 0 5 5 6 6 2 2 4 3 3 2 1 1 1 3 3 4 11 15 13 9 9 8 6 3 3 7 10 11 11
22 23 22 22 22 21 20 19 18 16 15 15 14 14 13 12 12 12 13 13 13 13 13 13 12 13 12 11 9 8 11 11 6 5 12 13 12 12 11 9 5 3 4 5 6 4 5 8 10 9 5 1 5 7 5 6 5 4 1 6 4 5 5 2 3 4 2 1 2 1 3 5 5 3 5 12 16 15 15 15 15 14 10 7 8 10 11 12
21 22 22 22 21 21 20 19 18 17 16 15 14 13 13 12 12 13 13 13 13 13 13 13 13 13 12 11 8 5 8 12 8 6 12 13 13 12 11 8 6 5 2 4 7 6 6 7 7 7 2 1 4 6 5 4 2 2 5 8 6 6 5 4 5 3 3 1 1 2 6 6 5 3 8 16 19 17 15 14 16 17 16 14 13 14 15 15
20 21 22 22 21 20 19 18 18 16 16 15 14 13 13 13 13 13 13 13 13 13 14 13 13 13 12 10 7 3 5 10 10 8 12 14 13 12 10 7 6 5 2 3 7 6 5 3 2 3 1 2 5 4 2 1 1 3 8 8 7 7 5 4 4 4 3 1 1 2 5 5 5 2 6 12 11 12 15 15 16 17 17 17 16 16 17 18
19 20 21 21 20 19 18 17 16 16 15 14 14 13 13 12 12 13 13 13 13 14 14 13 13 13 12 10 8 4 4 8 9 10 12 13 12 10 8 6 5 6 4 3 7 8 6 3 1 2 1 2 5 4 3 3 2 4 8 8 6 6 5 4 4 6 4 1 2 3 6 7 3 4 11 14 7 7 12 15 15 16 18 17 17 17 17 19
19 20 21 20 19 19 18 16 16 15 14 14 13 13 12 12 12 13 13 13 13 13 13 13 14 13 11 11 10 8 6 8 9 10 12 12 11 9 6 6 4 5 6 3 6 8 6 5 3 2 1 4 5 3 3 4 3 4 6 4 5 5 3 7 7 7 6 2 2 1 4 8 5 9 23 20 12 10 10 12 13 13 15 14 14 16 17 20
20 20 20 20 19 18 17 16 15 15 14 13 13 12 12 12 13 13 13 13 13 13 14 14 13 13 11 8 10 10 7 8 10 10 12 12 11 9 6 5 4 5 6 4 5 7 7 7 5 3 2 2 4 4 4 4 3 3 4 1 3 3 3 10 9 7 6 2 3 0 2 6 6 14 24 17 15 15 12 12 13 12 13 13 14 15 18 20
21 21 21 20 19 18 17 15 15 14 13 12 11 11 12 12 12 13 13 13 14 14 14 14 14 13 11 5 6 10 8 8 10 11 12 12 10 8 6 5 4 4 5 4 5 7 7 7 6 4 3 4 6 7 4 4 2 2 2 2 2 2 2 7 8 8 5 3 5 2 1 7 7 5 9 11 14 14 14 14 14 14 15 15 16 16 18 20
21 21 22 20 18 17 16 15 14 13 12 11 11 11 10 11 11 12 12 13 13 14 15 15 15 12 9 5 5 8 9 9 11 12 12 12 10 8 6 5 5 5 5 4 5 7 7 7 6 4 5 5 7 6 3 3 2 1 2 2 3 2 1 2 4 7 4 2 6 4 1 7 9 0 7 10 11 10 11 12 13 14 14 15 16 16 18 20
20 21 22 20 18 16 15 15 14 13 12 11 11 10 10 10 11 11 12 12 13 14 14 13 14 12 5 4 7 8 11 11 10 12 13 12 11 9 7 6 6 6 6 6 5 7 8 7 5 5 6 4 4 3 3 3 1 2 2 3 3 3 3 1 1 3 3 2 5 5 3 5 4 3 7 6 7 9 9 11 12 13 13 14 15 16 18 20
20 21 21 20 18 17 16 15 14 13 12 11 11 10 11 10 11 11 11 12 12 13 13 10 11 11 4 4 6 9 13 13 12 13 13 13 11 10 8 7 6 6 6 6 6 7 6 5 5 4 3 2 3 3 2 2 3 3 3 3 2 3 4 3 1 1 3 1 3 5 6 6 7 8 8 6 6 9 10 12 13 12 13 14 15 17 19 21
21 21 21 20 18 17 17 15 14 13 11 11 11 10 11 11 11 11 11 13 12 11 12 9 9 6 6 8 7 8 14 14 13 13 14 15 12 11 11 7 6 7 6 5 5 5 4 3 3 1 2 2 4 4 4 3 2 2 4 3 3 3 4 3 1 3 5 1 3 5 6 9 10 14 19 18 15 14 15 16 16 16 17 18 19 21 23 24
20 20 19 18 17 17 16 15 14 13 12 12 11 11 10 10 10 11 13 13 12 8 4 9 13 4 1 10 13 11 13 14 14 14 15 16 13 13 12 8 8 8 6 4 3 4 4 3 1 1 3 4 4 5 4 1 3 2 1 1 2 2 3 1 3 2 2 1 4 7 8 9 9 11 16 20 19 18 18 17 18 19 21 23 25 27 28 29
17 17 17 16 16 16 15 15 14 13 14 13 13 12 10 10 7 6 11 14 15 7 1 9 17 5 2 10 18 14 12 14 14 16 17 16 15 13 11 9 8 5 4 4 3 3 4 2 2 3 5 5 6 7 3 3 5 4 3 2 3 2 2 2 3 0 2 1 5 7 8 10 10 9 11 17 19 17 16 16 18 20 22 25 26 29 32 33
15 15 16 16 15 16 15 16 15 15 16 15 18 14 8 10 7 3 10 12 15 12 3 8 14 7 1 6 15 15 11 12 12 16 17 17 17 12 9 9 6 4 4 4 6 3 3 2 4 6 4 1 2 3 4 4 4 3 3 3 3 2 1 3 3 1 2 2 4 6 8 11 10 8 11 15 14 15 17 17 20 23 24 27 27 30 33 33
13 13 14 15 16 16 16 16 16 17 17 17 20 15 6 11 9 5 10 7 13 19 10 7 9 7 6 6 13 15 10 9 8 14 18 19 18 10 10 10 4 4 4 6 6 3 2 3 6 5 4 6 5 5 6 4 3 2 0 1 2 2 1 3 3 0 1 1 4 6 7 11 13 9 11 15 15 20 26 23 24 25 24 25 27 29 33 32
12 12 12 13 14 16 17 17 17 18 19 18 20 15 5 9 9 7 11 4 7 20 17 10 7 6 8 8 13 15 10 8 7 13 19 20 18 10 10 10 4 4 6 5 5 4 2 4 5 4 6 5 4 4 4 2 1 1 2 1 2 2 1 0 1 1 3 3 4 6 6 10 13 10 10 18 25 29 29 25 23 24 24 26 27 29 31 29
11 11 11 11 11 13 14 17 18 18 20 19 21 19 7 6 8 6 9 3 0 11 18 15 10 9 10 8 14 16 9 7 7 13 21 21 16 10 8 9 7 4 5 6 7 5 3 1 3 6 4 3 4 3 3 3 2 4 5 4 4 3 1 2 2 2 4 2 2 6 6 6 8 8 7 11 18 21 22 20 20 23 24 25 28 29 30 27
11 10 10 10 9 10 11 13 16 18 20 20 19 20 11 5 7 6 7 3 1 6 12 15 12 10 13 10 14 14 6 5 6 12 24 21 14 9 5 8 8 4 6 8 7 6 3 1 3 6 3 2 4 3 5 5 3 4 5 4 4 4 2 4 4 4 3 2 1 3 4 5 4 6 8 6 4 8 12 14 17 22 24 24 26 28 27 25
12 11 9 9 8 9 9 7 10 14 16 19 19 19 14 7 7 8 6 1 2 4 6 11 12 11 14 13 14 12 2 4 8 12 23 21 14 10 4 4 4 2 5 6 3 2 2 1 1 5 5 4 3 2 4 6 2 3 3 2 2 2 4 4 3 3 1 3 3 2 0 6 6 8 11 10 9 10 8 9 15 22 23 23 25 24 20 17
15 14 11 9 8 8 8 5 7 10 9 14 18 17 15 11 8 8 5 1 3 6 7 8 10 10 13 14 17 11 1 8 11 10 22 21 13 10 5 3 4 2 3 2 2 0 3 3 2 4 4 4 4 3 3 7 3 2 3 3 1 4 5 3 3 1 2 3 3 4 3 5 7 8 11 11 12 12 9 8 12 19 25 25 22 18 13 10
18 17 14 12 9 8 8 6 7 10 8 10 15 16 15 13 10 7 4 1 3 7 6 7 9 10 14 17 19 10 5 12 9 7 21 21 13 9 4 3 5 5 3 3 3 1 2 5 5 5 5 4 4 1 3 8 4 2 3 2 2 5 4 3 2 1 2 4 3 4 4 3 7 6 7 9 10 10 9 9 10 17 26 22 14 11 9 8
18 19 18 15 12 11 10 7 7 9 7 7 13 17 15 14 10 5 1 2 4 5 4 8 10 10 14 16 15 9 8 7 2 7 19 18 12 7 2 4 4 6 8 6 4 1 2 2 2 5 5 3 3 3 2 4 3 4 4 2 5 5 3 3 2 1 3 3 4 6 6 3 8 5 5 5 6 7 8 8 8 14 17 13 11 11 9 6
13 18 21 18 15 14 12 9 8 8 6 6 13 17 17 13 7 3 3 3 2 3 4 8 8 10 15 11 7 7 7 3 3 11 12 9 10 5 1 2 3 1 5 3 2 2 2 2 2 1 2 3 6 5 6 3 5 6 5 4 5 3 4 3 1 4 2 4 4 7 10 5 5 4 4 4 5 7 6 5 6 4 7 11 11 9 5 3
10 13 17 18 18 16 13 12 11 10 5 6 14 19 16 8 2 4 5 1 1 3 5 5 6 11 15 10 6 7 6 4 8 12 6 4 7 3 2 2 2 3 2 2 1 2 2 1 1 1 3 5 7 5 7 5 4 4 2 4 4 2 4 3 2 4 1 5 2 2 8 7 5 4 3 3 1 4 3 3 3 6 11 11 7 4 4 7
13 12 13 16 17 16 15 14 13 12 6 6 17 19 11 3 1 5 4 2 0 3 5 5 7 10 12 10 7 8 7 6 9 10 6 5 5 4 5 5 4 3 0 3 1 1 1 3 2 3 2 5 5 4 5 5 3 1 2 5 4 0 1 1 1 1 3 6 3 3 1 5 10 8 1 2 3 2 4 4 1 5 8 6 3 3 8 11
14 14 13 14 16 16 17 15 13 14 9 10 17 13 4 3 5 7 6 3 1 1 5 8 9 10 11 9 6 7 6 5 8 8 6 6 5 6 7 7 8 5 2 5 4 1 1 2 3 4 1 6 6 4 3 1 2 4 5 6 5 3 2 3 4 3 4 4 3 4 2 3 8 7 6 7 6 4 6 10 10 5 3 7 8 9 11 14
14 14 14 14 15 16 18 16 14 14 12 13 14 7 2 6 7 7 8 4 1 2 3 7 9 10 10 7 5 8 5 3 8 8 5 6 5 5 7 7 9 6 1 3 4 6 4 4 5 6 4 10 10 6 8 6 5 7 5 5 5 5 4 4 3 3 4 1 3 3 0 3 4 4 3 3 2 4 8 9 11 11 12 14 13 14 17 18
13 14 14 14 15 16 17 18 16 13 15 14 8 3 6 8 5 6 7 3 3 2 3 6 8 9 8 4 2 7 4 2 8 7 5 7 6 6 7 8 11 8 4 4 3 5 6 5 5 6 7 15 12 8 9 7 3 5 3 3 5 4 3 2 2 3 2 1 2 2 3 5 4 8 11 8 10 12 14 13 11 13 15 13 14 20 25 24
11 14 15 14 16 17 16 18 16 13 18 16 6 3 9 7 2 3 2 0 3 6 7 6 5 5 7 3 1 3 1 2 7 6 3 6 6 7 8 7 12 12 8 7 2 3 5 3 1 3 5 11 9 6 6 5 3 3 3 4 4 1 2 2 1 1 4 2 4 3 5 6 4 11 12 9 12 13 13 14 13 15 15 12 18 24 23 21
8 11 15 17 17 17 17 18 16 15 19 15 7 6 5 2 2 0 3 4 3 11 9 5 4 5 6 4 2 5 2 2 6 5 4 5 4 8 10 7 12 15 13 10 3 2 5 2 2 1 2 4 1 1 0 2 3 4 4 4 1 3 2 2 1 2 1 6 4 3 8 6 3 8 5 1 4 6 5 8 12 17 17 15 21 22 17 15
8 7 12 18 20 18 18 17 15 17 17 11 7 8 2 1 3 2 5 6 2 10 7 5 5 5 7 6 5 7 6 4 6 5 5 5 4 8 11 8 10 15 17 14 5 1 4 3 3 2 1 1 3 1 1 3 5 4 2 2 2 1 2 2 3 2 3 5 4 4 8 6 6 10 7 6 6 6 6 7 8 11 14 16 19 18 14 12
8 4 7 14 20 20 18 16 17 16 9 4 5 7 4 3 7 5 4 6 3 2 5 6 6 5 6 7 6 8 8 7 8 6 5 5 3 8 12 9 8 13 18 17 7 1 2 3 3 3 4 1 3 1 4 1 3 2 3 3 1 2 3 4 3 3 3 4 5 5 5 6 9 9 7 8 8 7 9 8 7 9 14 15 13 10 8 10
7 3 4 9 15 18 17 17 17 12 3 1 4 3 3 4 11 17 11 4 4 2 1 3 4 5 7 7 6 8 8 8 9 7 5 6 5 4 9 10 6 7 14 15 8 3 2 2 3 2 4 0 1 4 8 7 5 3 1 2 2 1 2 1 2 2 4 4 4 4 6 8 8 5 5 6 4 5 5 3 3 7 10 7 4 5 8 10
6 2 4 8 12 16 18 14 11 7 2 2 4 2 3 4 6 16 16 7 0 2 3 2 1 1 3 5 5 7 7 6 7 6 4 7 6 3 5 11 9 8 9 9 7 5 3 3 4 2 1 3 5 7 9 10 9 9 7 7 8 5 4 2 4 4 3 2 3 3 5 11 8 3 3 3 2 3 4 7 5 4 3 5 9 11 12 10
7 3 3 8 11 16 19 10 4 4 3 4 6 5 6 5 4 9 12 8 4 1 2 1 0 0 1 1 0 3 5 6 7 7 5 7 7 3 6 12 14 15 10 5 7 8 4 3 3 3 4 6 4 3 5 5 4 4 5 7 7 6 5 5 5 4 2 2 3 2 4 13 10 1 2 4 2 4 7 8 7 9 10 11 12 15 14 10
8 5 3 8 13 17 16 6 4 5 4 6 9 8 9 7 5 7 8 7 5 3 1 1 0 0 1 2 2 3 1 3 4 4 4 5 4 1 3 9 14 15 9 3 5 6 4 2 3 2 1 1 1 2 2 1 2 1 4 4 4 5 7 6 4 4 3 3 3 3 5 13 10 1 3 5 3 3 6 9 11 10 11 13 16 18 16 10
9 8 5 7 15 19 14 6 6 8 6 5 6 8 12 10 8 9 7 6 6 4 3 3 1 1 1 2 3 1 2 0 0 0 1 2 1 4 3 5 8 7 3 2 3 7 5 2 4 3 1 1 1 2 2 2 0 2 4 3 4 6 6 4 2 2 2 6 9 6 7 12 8 3 5 5 4 1 5 8 9 9 11 15 17 16 14 11
8 9 9 10 16 21 16 8 4 6 7 7 6 8 11 8 11 16 11 8 9 5 3 4 4 4 2 2 2 1 1 1 0 2 2 1 1 3 4 3 2 1 3 3 4 9 7 3 5 6 7 8 5 3 3 3 2 2 4 6 7 8 7 4 3 3 6 10 11 7 7 12 11 3 1 2 4 2 4 4 5 9 12 16 17 18 17 15
7 7 6 8 15 21 21 15 7 3 6 9 7 8 10 7 8 17 16 11 13 11 6 5 6 5 4 3 2 4 4 3 2 1 0 1 1 1 2 0 1 1 2 3 3 5 3 1 4 6 9 9 5 2 4 6 5 5 8 9 8 9 10 6 4 6 9 9 9 10 10 14 19 17 11 5 3 4 5 7 12 16 19 20 20 22 23 21
7 6 6 7 9 13 17 17 12 5 5 9 6 5 11 10 5 11 15 12 15 17 9 5 8 7 6 8 7 7 8 7 5 5 5 4 1 1 0 1 1 2 3 3 2 4 3 2 5 6 9 9 5 3 1 5 6 8 9 10 9 9 10 9 9 12 11 7 9 12 10 13 21 23 15 7 7 9 8 9 15 18 20 21 21 21 23 25
8 7 11 11 7 5 9 14 15 11 9 8 6 5 9 12 8 8 10 9 12 17 11 6 10 11 11 13 9 6 9 8 7 7 7 6 3 0 1 0 0 2 4 3 2 3 3 3 5 5 8 10 8 8 7 4 4 6 6 9 11 11 12 12 15 17 13 9 11 12 11 13 18 22 17 6 6 13 14 15 20 22 22 25 26 25 25 26
12 9 11 13 9 6 10 14 14 12 11 8 7 7 8 12 13 10 8 5 6 12 12 8 11 14 12 13 10 7 8 8 8 8 7 6 5 3 2 1 1 1 4 4 2 3 3 2 5 4 6 10 11 10 10 9 9 7 7 8 9 12 16 17 18 18 16 14 14 16 17 17 17 18 17 13 16 22 24 24 26 29 31 29 26 24 26 28
15 11 9 8 7 7 9 11 11 9 11 10 8 8 8 10 13 11 9 9 6 8 12 12 12 13 13 12 11 10 10 10 9 9 8 8 7 5 4 3 2 1 1 3 2 3 4 3 4 4 3 9 13 12 10 9 10 10 9 9 10 13 15 16 16 14 13 14 16 18 18 18 16 13 16 25 28 23 22 26 27 30 33 29 24 24 26 29
21 15 10 6 5 6 7 6 7 7 8 9 9 9 10 12 13 9 8 13 13 8 10 14 12 9 10 13 13 11 11 11 8 4 6 8 7 6 5 5 6 4 2 2 3 4 5 3 1 4 4 7 9 10 10 7 6 7 9 12 15 15 12 11 9 9 12 14 14 14 13 14 14 10 13 24 26 18 18 26 29 29 31 28 25 26 29 31
27 20 14 7 5 7 6 4 4 6 7 10 12 12 11 11 11 8 5 10 17 16 15 16 13 8 7 11 15 15 13 10 6 1 3 3 3 2 4 5 1 6 6 4 3 4 5 4 2 3 3 6 8 7 6 4 3 5 11 16 17 15 13 12 10 12 15 13 9 10 11 12 13 11 12 18 19 16 19 25 30 30 30 27 25 26 30 32
Wind_Direction
187 183 183 185 188 187 186 186 188 185 184 188 190 192 191 190 194 196 201 204 208 209 210 210 207 206 204 206 208 212 215 213 211 195 192 202 214 227 233 218 205 204 198 191 184 173 158 151 158 156 161 180 188 206 202 211 209 191 206 207 239 236 211 177 132 102 139 144 153 171 176 168 153 172 184 183 185 182 171 170 188 207 213 227 224 201 217 210
191 185 183 186 189 189 187 187 189 188 187 190 193 194 193 194 196 200 204 206 209 210 210 208 205 205 203 206 208 210 212 215 214 201 215 235 226 224 223 213 210 204 193 187 176 156 150 190 192 174 180 191 181 184 191 197 201 210 208 216 242 230 12 26 59 56 59 125 157 170 190 191 157 167 175 183 192 189 198 196 193 204 215 229 231 228 232 219
194 189 184 186 189 190 189 189 190 190 189 190 194 195 195 197 199 203 207 208 209 210 211 207 203 203 201 204 207 207 209 220 224 215 224 235 222 213 208 205 205 197 192 188 176 177 216 225 196 195 203 195 177 179 182 186 202 226 247 214 255 66 42 36 58 63 38 62 143 156 191 192 138 152 169 197 199 184 199 202 192 196 208 227 232 231 231 223
195 193 188 187 190 190 191 191 191 191 190 191 194 196 197 199 201 205 209 210 210 209 210 206 202 202 200 202 202 197 200 228 233 222 222 219 207 199 196 192 190 191 191 194 184 190 201 181 188 203 222 206 168 176 183 181 191 198 227 179 339 348 37 44 56 73 61 47 98 130 170 186 138 146 167 189 216 204 208 207 208 209 209 220 226 227 227 224
195 197 193 190 190 192 192 192 192 191 191 193 195 198 200 201 203 206 209 211 210 209 208 204 201 200 199 199 196 185 183 203 224 215 215 207 199 194 189 177 175 180 179 185 173 180 183 169 202 209 240 216 148 177 185 174 188 177 140 84 28 358 35 50 56 85 81 62 95 120 149 163 148 164 188 195 224 209 175 186 204 213 209 212 217 220 219 220
197 198 197 192 191 192 194 193 192 193 193 194 197 200 202 204 206 207 209 212 210 208 205 201 199 198 197 196 195 188 188 228 267 208 206 201 197 192 185 173 165 159 166 175 157 168 183 187 207 207 235 222 158 182 149 161 193 217 110 78 49 27 66 55 65 106 85 66 92 115 123 125 143 209 223 218 228 215 123 125 185 199 195 198 208 214 215 221
200 199 199 196 192 192 193 193 193 196 196 197 200 202 204 207 209 210 210 212 210 207 203 199 197 196 194 195 197 199 211 252 300 218 201 196 196 194 188 180 169 155 162 162 150 182 196 200 210 210 228 221 176 176 125 156 185 219 187 92 61 59 86 74 106 150 113 63 29 31 338 205 194 238 235 226 229 229 244 263 262 261 238 182 203 215 224 235
203 200 200 199 196 193 191 192 193 196 199 201 204 205 207 209 211 212 211 211 209 206 202 197 196 194 192 196 198 211 228 242 272 230 200 196 196 198 197 192 189 185 177 167 169 200 217 218 220 219 235 225 174 163 143 165 182 241 157 112 105 80 92 95 111 163 150 44 311 272 268 260 228 244 268 245 236 232 240 251 258 260 250 232 228 236 242 245
205 201 200 199 198 196 192 191 193 196 200 203 205 207 209 210 213 213 212 211 207 204 200 197 195 191 192 197 198 218 236 231 240 227 200 197 198 201 203 202 210 203 197 191 182 189 211 227 229 222 262 76 145 143 160 179 177 216 115 119 130 106 107 110 111 139 138 199 272 246 256 245 215 253 273 256 251 245 240 242 248 254 254 245 240 244 251 252
205 202 201 199 198 198 195 193 194 197 201 204 207 209 211 211 213 212 211 209 205 201 198 196 193 190 193 195 196 221 234 221 226 218 199 199 201 203 204 206 219 198 170 217 192 189 211 252 258 204 305 80 128 115 136 143 84 121 114 117 124 121 133 133 134 140 135 177 191 264 276 254 195 164 265 258 260 247 231 231 238 246 252 253 251 248 250 252
203 201 201 199 197 198 197 196 197 199 203 207 210 212 213 212 212 211 210 208 205 200 196 197 191 189 194 192 198 228 235 217 215 207 196 199 201 201 201 200 211 185 158 215 200 192 211 242 133 158 277 132 122 89 86 102 105 130 123 112 123 141 151 160 163 161 173 174 179 281 303 283 197 150 251 246 240 236 215 221 232 242 250 255 256 252 250 249
200 199 199 196 196 197 196 197 198 200 204 209 213 216 216 213 211 209 208 206 203 199 196 195 189 190 194 196 214 239 250 218 202 196 193 196 195 190 192 188 189 175 156 182 203 194 205 207 156 94 140 146 126 109 102 113 112 144 152 130 152 165 169 188 185 178 200 173 128 342 311 273 217 220 254 246 229 233 212 217 227 237 250 253 253 248 248 251
196 197 196 193 194 195 196 197 197 201 204 209 215 218 217 213 210 207 206 204 201 198 195 192 189 190 192 201 225 238 251 219 195 188 187 186 185 182 183 171 161 169 160 165 194 188 196 192 159 115 124 94 93 120 116 118 120 166 202 252 159 174 216 193 179 174 196 139 133 108 307 263 228 233 252 243 222 226 213 221 227 233 247 253 257 251 247 252
192 192 191 190 192 194 195 195 197 200 203 209 215 217 217 213 210 207 203 201 198 196 193 190 189 190 195 211 235 229 230 214 195 187 181 180 178 175 171 155 145 153 149 149 170 173 179 181 168 144 99 68 103 122 107 119 149 167 171 306 204 199 225 174 159 165 186 154 156 156 264 263 284 266 235 208 205 214 213 225 233 239 244 248 254 254 251 253
190 188 187 188 191 193 193 193 196 198 200 207 210 212 211 208 208 204 200 199 196 193 191 190 189 187 200 228 232 216 207 200 197 189 182 178 172 165 159 148 141 140 124 124 155 162 159 163 162 134 100 98 124 134 129 149 213 189 131 276 238 217 243 136 157 169 175 181 170 166 233 261 274 216 147 177 192 203 218 234 239 242 243 242 244 250 256 259
188 185 183 184 188 189 188 190 194 195 197 200 202 204 201 202 202 198 196 194 192 192 188 189 192 189 195 221 212 202 194 190 191 187 182 178 172 165 154 141 136 133 122 119 137 149 150 149 133 120 118 124 155 182 166 151 230 213 173 242 216 196 196 164 269 192 135 137 184 206 253 279 265 166 147 170 203 214 225 245 249 249 247 243 242 246 255 260
182 181 180 180 183 184 185 188 191 192 193 193 194 195 193 194 192 191 191 189 190 189 183 180 189 201 228 227 201 196 196 191 186 185 180 179 175 161 147 139 140 130 121 121 120 128 138 140 127 124 138 175 221 207 162 179 232 205 193 245 223 181 196 179 323 240 155 177 242 223 234 261 274 277 269 257 248 228 223 241 252 253 248 244 243 243 249 252
174 175 177 179 180 180 183 186 188 189 189 186 186 187 187 190 188 187 185 184 183 178 183 178 167 190 239 217 196 194 201 196 187 185 178 177 176 162 152 143 142 133 126 130 125 131 136 139 145 155 170 215 239 193 175 205 225 191 184 222 224 208 240 231 115 181 180 193 266 238 240 249 259 275 276 272 262 238 230 240 247 249 248 249 250 248 250 250
166 171 173 177 178 179 181 183 185 185 182 180 178 176 176 177 181 187 186 183 175 164 189 187 175 171 292 195 193 196 200 194 183 179 176 176 175 169 160 147 153 155 152 160 154 159 150 123 124 268 182 200 226 202 203 219 36 27 137 189 248 244 256 179 109 171 187 179 239 240 251 254 253 260 268 272 266 247 239 240 239 241 245 248 251 252 252 250
161 166 171 175 177 178 180 180 181 180 178 177 169 161 159 159 157 182 192 190 184 181 331 183 186 206 28 176 188 188 184 180 177 178 179 177 171 167 159 150 162 186 204 180 154 167 165 145 186 216 210 207 211 204 193 51 40 12 7 359 318 328 350 97 108 354 7 330 243 242 253 261 261 258 263 269 271 263 253 249 246 243 244 246 249 252 254 254
157 166 171 174 177 179 180 179 180 178 178 179 170 156 149 168 163 158 184 197 202 210 257 178 187 203 177 179 186 178 161 161 175 185 182 175 167 162 164 165 162 203 218 130 107 132 159 172 217 215 211 159 169 165 95 51 29 24 6 344 324 268 243 70 87 203 46 40 265 272 279 273 265 261 266 265 266 263 254 248 248 247 247 248 250 254 259 261
150 161 170 176 179 180 182 179 180 179 178 182 177 164 152 179 179 168 173 191 214 218 235 200 188 200 204 207 187 173 154 148 172 192 184 171 169 166 171 178 178 184 171 104 96 109 145 218 234 206 124 82 59 56 65 31 16 60 106 322 313 256 154 57 45 3 88 128 268 294 298 283 276 265 261 258 253 255 252 245 246 247 247 249 249 253 259 261
146 152 160 173 180 182 184 182 181 181 181 184 183 178 167 175 177 179 181 176 207 213 226 212 186 197 202 199 182 171 162 161 172 189 183 172 175 178 169 180 202 173 159 147 156 160 165 225 225 139 103 97 77 65 81 59 13 182 193 201 254 238 132 23 321 287 219 210 276 308 301 281 280 271 254 247 243 249 255 253 253 252 250 250 250 252 255 257
149 153 155 161 173 179 183 185 184 184 184 185 188 188 178 165 177 183 191 210 346 200 213 210 190 193 197 188 180 177 172 169 169 186 183 173 176 185 177 189 206 187 175 185 192 198 192 198 128 107 101 130 119 117 141 154 223 220 204 201 227 243 109 98 41 304 245 226 329 326 308 274 270 269 266 252 238 242 253 254 255 254 251 251 252 254 255 255
159 159 160 161 165 169 174 184 188 188 188 188 192 194 188 174 184 186 191 219 305 178 198 207 200 197 196 189 182 178 168 152 150 184 185 174 171 175 180 202 204 203 195 188 200 221 212 146 118 113 110 150 140 160 182 179 218 240 214 203 236 277 30 73 40 357 339 324 305 2 331 289 295 290 284 297 267 239 244 243 244 248 252 253 255 258 260 259
175 170 175 174 168 170 166 168 189 192 192 193 196 195 193 181 170 183 187 220 265 172 164 194 199 198 196 188 171 161 154 170 155 178 183 175 173 171 165 192 182 215 207 183 196 230 155 135 102 121 131 132 147 215 192 171 192 261 261 332 329 9 64 71 31 24 12 289 250 128 328 277 300 292 277 285 281 260 245 236 241 248 254 254 255 260 266 270
183 179 189 190 177 173 165 145 171 176 180 200 201 190 186 179 161 166 166 343 255 172 145 174 187 189 188 177 166 157 124 166 153 171 182 178 179 178 177 164 141 228 247 110 124 187 121 140 98 111 132 131 163 222 182 160 162 241 257 310 350 87 93 102 68 135 228 308 270 176 171 268 279 263 255 258 264 265 254 245 249 251 254 254 254 256 260 266
190 185 189 194 185 176 172 156 155 157 165 203 201 187 179 174 164 153 154 280 199 153 146 166 169 173 171 167 171 163 117 151 150 174 181 180 181 181 209 207 167 193 204 118 159 273 93 156 161 152 153 157 171 226 184 163 154 229 237 283 99 97 96 122 99 240 291 0 299 205 150 277 271 240 234 239 250 264 251 237 237 242 249 251 242 228 226 234
199 196 191 189 186 186 186 172 158 165 177 193 188 183 175 165 156 135 145 231 157 130 141 158 158 162 157 159 172 160 126 145 160 168 174 181 180 172 210 242 226 194 189 187 183 352 30 157 181 159 163 182 139 32 350 161 146 198 197 91 81 86 68 73 82 36 17 339 256 194 156 255 276 241 196 211 232 248 242 226 227 236 239 228 192 185 201 217
203 203 198 192 190 193 191 181 173 173 175 179 179 175 168 160 148 138 180 209 169 109 114 146 154 157 156 153 165 168 147 115 110 143 158 176 176 176 157 196 295 189 172 197 144 82 77 62 355 142 133 133 119 63 20 59 127 156 160 92 74 64 46 39 37 73 45 285 249 182 176 187 292 272 167 180 216 213 217 225 229 207 166 165 169 172 193 239
208 203 200 197 194 192 191 190 186 178 171 177 173 166 162 156 141 192 185 199 287 122 116 147 148 152 165 161 155 179 162 111 138 145 137 155 169 200 207 158 1 40 57 338 32 100 129 88 24 139 121 113 110 68 26 39 105 128 129 113 87 21 27 24 355 60 128 256 292 204 188 179 242 273 100 93 163 171 198 234 193 143 138 148 162 196 267 291
211 205 201 200 199 195 195 200 193 182 178 166 166 162 155 150 242 223 190 83 197 180 152 168 157 158 178 172 157 176 162 137 163 164 150 158 168 190 200 187 152 121 302 218 196 43 182 199 146 108 145 161 129 80 35 7 7 87 146 131 114 355 16 353 255 141 217 238 291 326 270 207 239 256 288 319 308 308 283 278 237 130 145 154 175 276 293 291
207 207 204 199 203 203 199 203 199 192 185 159 161 158 132 178 204 213 198 151 178 196 136 153 159 162 175 178 166 165 160 155 171 174 161 162 180 193 208 212 182 180 211 177 173 157 235 278 143 107 309 203 180 136 130 283 218 190 170 146 151 166 187 238 219 213 236 238 294 333 11 255 260 272 260 246 258 312 308 276 268 249 232 272 278 283 289 283
202 205 203 198 205 208 203 204 203 198 185 158 154 142 141 203 204 201 203 185 74 44 101 140 151 158 173 185 164 154 157 165 166 170 163 162 185 201 208 221 206 207 194 164 182 175 203 282 185 170 179 183 195 192 170 159 175 199 188 161 178 172 183 210 188 214 232 213 304 317 309 209 230 269 254 220 250 326 330 295 263 250 258 273 276 281 286 283
203 203 200 198 205 209 209 208 204 198 183 162 139 137 187 205 211 198 201 173 117 107 102 133 142 154 177 195 161 161 158 158 168 171 175 177 196 198 191 206 207 203 177 190 212 168 201 249 184 164 161 167 186 205 171 134 153 216 197 187 218 199 178 190 169 182 152 43 291 229 241 227 221 276 276 269 270 270 272 271 257 248 254 266 278 286 288 285
204 201 200 203 206 208 209 208 210 202 179 157 128 200 202 208 217 182 183 139 165 145 121 134 150 160 175 178 250 194 114 92 166 173 191 197 214 208 197 197 197 198 188 185 197 153 183 246 103 99 147 167 183 207 176 143 173 203 170 203 220 137 126 188 265 68 100 267 260 184 260 284 311 293 275 246 257 263 254 246 240 246 253 263 274 277 279 279
204 201 205 207 207 210 208 208 217 207 178 156 158 208 206 224 242 138 354 336 154 145 136 147 176 184 176 167 198 192 150 109 165 174 186 191 220 214 211 210 193 197 201 193 210 186 162 206 300 69 159 194 147 8 110 69 86 130 171 207 126 44 23 143 221 355 126 247 260 188 249 278 302 283 290 30 296 293 260 222 225 242 245 247 260 264 265 274
207 210 218 212 208 210 206 208 219 205 180 158 181 207 196 259 254 26 5 329 161 151 165 181 174 188 186 175 183 181 169 161 175 187 181 177 220 206 200 211 196 195 203 200 211 259 151 191 282 357 1 303 30 51 207 28 52 112 174 255 105 132 249 143 174 234 207 237 266 249 253 261 239 247 280 326 314 300 273 233 217 229 225 231 250 257 260 272
209 224 245 221 211 209 205 208 212 200 178 144 185 203 196 225 257 281 345 340 327 185 203 194 179 197 198 183 175 171 175 177 171 180 189 180 214 200 187 195 197 190 195 195 203 234 151 183 239 324 332 358 40 215 195 133 22 47 359 335 95 157 188 175 187 193 182 219 249 270 275 255 238 244 270 273 261 262 261 247 231 211 207 224 247 255 263 273
203 213 258 229 212 209 207 205 201 191 160 155 192 191 169 196 245 252 258 310 358 6 300 228 198 196 205 204 177 161 181 191 173 181 204 182 188 216 189 182 182 178 182 188 195 178 140 185 205 314 334 345 169 213 190 175 179 185 240 230 196 142 115 166 260 196 175 193 228 257 269 262 251 233 238 245 252 272 264 239 225 187 183 214 278 297 282 273
185 213 237 215 207 202 198 194 190 185 164 190 208 232 200 179 228 245 246 241 177 34 18 339 260 190 215 218 185 153 170 191 182 185 204 189 196 243 189 176 170 163 170 182 196 183 163 184 176 151 279 219 214 214 197 190 189 190 194 196 197 186 147 184 250 226 178 178 218 222 258 271 263 172 207 269 15 359 50 73 63 56 36 338 331 314 292 277
188 220 216 203 203 192 187 187 190 194 198 200 199 199 199 189 196 229 233 219 200 301 357 1 243 293 334 282 150 121 156 186 195 191 195 203 206 207 190 184 169 160 159 169 195 188 153 144 171 181 202 205 218 215 194 190 185 200 219 208 198 188 169 186 213 215 193 211 245 237 258 267 265 140 302 302 60 59 37 28 355 338 324 316 317 300 279 270
202 213 202 201 204 190 182 194 215 203 218 208 195 188 190 191 181 195 208 202 191 190 211 272 345 193 335 41 44 24 78 181 198 190 193 205 201 147 184 179 164 160 159 158 189 175 122 119 189 211 204 161 37 16 25 58 99 236 256 209 183 196 191 191 193 188 186 191 210 211 241 263 272 191 207 218 129 42 343 320 308 306 301 300 299 283 267 264
213 218 227 208 198 189 187 203 208 208 220 199 186 194 200 203 195 186 188 193 193 171 169 208 222 189 270 55 92 358 345 64 267 336 155 194 134 61 72 142 154 157 147 113 164 164 157 175 173 174 233 242 306 353 350 339 110 231 247 197 198 207 180 168 181 177 220 213 205 204 232 257 268 103 130 148 123 189 253 259 270 282 296 300 292 277 266 272
213 219 235 225 202 197 205 220 209 211 215 202 202 202 196 203 206 200 195 189 193 185 157 194 194 171 165 78 94 280 321 116 271 343 38 1 348 44 45 83 123 64 56 73 127 157 171 206 172 182 219 221 223 231 211 210 194 221 228 205 205 200 174 157 152 172 226 226 217 220 239 256 262 250 162 96 94 151 218 240 278 287 295 299 293 283 277 279
210 209 219 218 205 207 220 231 241 257 212 200 213 211 198 203 206 201 201 197 193 196 194 194 187 170 172 174 187 251 261 220 215 280 333 226 260 358 11 122 147 81 77 81 119 143 140 262 196 201 229 226 221 221 170 148 156 202 220 210 205 201 194 184 167 197 223 231 234 233 235 260 269 262 256 274 326 298 280 294 298 292 290 291 290 285 281 279
215 210 197 187 198 217 229 231 233 248 223 201 202 206 203 207 203 195 201 202 193 194 202 201 184 178 187 194 202 226 234 229 224 237 248 242 232 40 25 213 192 171 140 108 116 122 107 235 226 227 245 245 251 263 163 123 167 207 215 208 210 213 206 201 213 225 224 225 245 241 227 247 266 267 264 267 283 282 279 282 285 286 288 290 291 286 282 280
215 229 216 198 193 214 220 220 219 220 228 223 215 210 204 207 210 199 198 207 199 193 197 205 196 194 189 188 193 203 205 210 215 220 233 238 231 80 67 3 5 174 155 104 82 109 116 226 236 235 253 261 271 280 285 278 229 222 219 211 208 210 211 212 224 233 230 226 246 252 240 238 258 271 273 262 264 277 284 290 290 291 290 287 286 284 281 280
221 246 232 213 217 231 218 213 212 214 225 230 226 221 209 208 214 205 181 185 208 199 197 204 203 202 197 187 188 197 191 193 210 214 209 208 208 204 202 246 15 143 146 117 99 117 115 232 240 229 264 271 267 269 273 274 275 267 251 240 223 212 213 216 224 231 233 236 247 255 256 253 254 267 280 285 279 280 287 292 290 288 286 282 281 282 282 280
214 227 237 236 246 256 241 215 197 203 219 221 228 231 223 219 219 212 186 177 186 197 201 211 210 200 200 198 197 207 202 192 203 208 196 193 200 205 211 193 145 109 111 113 127 153 154 211 225 182 236 269 262 259 258 254 261 266 262 257 248 236 227 222 226 232 235 241 246 250 259 264 259 264 284 285 281 282 288 287 282 280 283 285 286 286 284 282
214 215 231 261 254 238 252 233 194 195 209 211 221 223 224 229 221 215 205 193 190 186 191 208 216 204 203 211 212 218 217 209 216 209 177 192 202 197 208 193 154 151 159 141 142 157 171 200 178 148 204 251 247 246 251 245 242 257 261 252 245 244 242 234 226 222 227 233 241 248 254 261 266 273 279 280 281 281 278 279 281 281 283 285 287 285 284 282
219 219 224 239 249 222 226 241 215 209 206 208 218 217 218 228 222 215 221 201 199 200 196 202 210 205 209 220 222 227 229 220 229 247 133 193 243 223 249 275 189 149 164 163 147 160 169 170 162 157 201 250 242 226 238 253 231 234 240 239 237 238 242 246 244 235 232 228 230 241 245 253 270 278 270 272 277 276 273 277 281 283 284 286 286 285 285 284